Location: Poprad
(49.0500°N, 20.3000°E)
Time: 08:51:28
(UTC+02:00)

Oscar 11 - Pass Details

Date: 27 April 2024
Orbit: 602 x 614 km, 97.7° (Epoch: 19 May)

Event Time Altitude Azimuth Distance (km) Brightness Sun altitude
Rises 04:09:01 0° 19° (NNE) 2,892 11.5 -11.5°
Reaches altitude 10° 04:11:18 10° 26° (NNE) 1,980 10.7 -11.2°
Maximum altitude 04:15:24 42° 98° (E) 871 8.2 -10.7°
Drops below altitude 10° 04:19:28 10° 170° (S) 1,956 9.4 -10.1°
Sets 04:21:43 0° 177° (S) 2,853 10.1 -9.8°
